Date String (YYYY-MM-DD hh:mm:ss) UTC,Instrument flags,Ambient pressure (hPa),Sample flow (lpm),Bypass flow (lpm),Sample temperature (°C),Ambient temperature (°C),ASC tube jacket temperature (°C),LED temperature (°C),Box temperature (°C),Sample RH (%),Span deviation,Mass concentration (μg/m³),Mass concentration (μg/m³),Mass concentration (μg/m³)
DateTimeUTC,F1_M11,P_M11,Q1_M11,Q2_M11,T1_M11,T2_M11,T3_M11,T4_M11,T5_M11,U1_M11,ZSPAN_M11,X0_M11,X2_M11,X1_M11
2021-12-31 16:00:00,,0811.5,5.01,0.00,21.3,22.5,00.0,30.3,23.3,16.2,0000.0,0009.83,0003.62,0002.97
2021-12-31 16:01:00,,0811.5,5.00,0.00,21.4,22.1,00.0,30.3,23.2,16.2,0000.0,0010.21,0003.86,0003.26
2021-12-31 16:02:00,,0811.5,5.00,0.00,21.3,21.7,00.0,30.4,23.0,16.4,0000.0,0010.27,0004.10,0003.46
2021-12-31 16:03:00,,0811.6,5.00,0.00,21.3,21.4,00.0,30.3,22.9,16.4,0000.0,0009.63,0004.26,0003.64
2021-12-31 16:04:00,,0811.6,5.01,0.00,21.3,21.1,00.0,30.3,22.8,16.5,0002.3,0009.73,0004.51,0003.87
2021-12-31 16:05:00,,0811.6,4.99,0.00,21.2,20.9,00.0,30.3,22.7,16.6,0004.0,0010.17,0004.85,0004.17
2021-12-31 16:06:00,,0811.6,5.01,0.00,21.1,20.7,00.0,30.3,22.6,16.7,0004.4,0012.18,0005.22,0004.52
2021-12-31 16:07:00,,0811.6,5.00,0.00,21.1,20.6,00.0,30.3,22.5,16.8,0003.5,0013.39,0005.74,0005.04
2021-12-31 16:08:00,,0811.6,4.99,0.00,21.0,20.5,00.0,30.3,22.4,16.8,0003.3,0014.35,0006.41,0005.67
2021-12-31 16:09:00,,0811.6,4.99,0.00,20.9,20.3,00.0,30.2,22.3,16.9,0003.2,0014.90,0007.25,0006.48
2021-12-31 16:10:00,,0811.5,5.00,0.00,20.9,20.2,00.0,30.2,22.2,17.1,0003.4,0016.36,0008.13,0007.28
2021-12-31 16:11:00,,0811.6,5.00,0.00,20.9,20.6,00.0,30.2,22.4,17.3,0003.0,0017.72,0009.19,0008.28
2021-12-31 16:12:00,,0811.6,5.00,0.00,21.0,21.6,00.0,30.2,22.8,17.2,0002.8,0019.42,0010.38,0009.37
2021-12-31 16:13:00,,0811.6,4.99,0.00,21.2,22.5,00.0,30.3,23.2,17.2,0003.0,0021.45,0011.88,0010.76
2021-12-31 16:14:00,,0811.6,4.99,0.00,21.3,22.3,00.0,30.3,23.2,17.1,0002.9,0023.57,0013.63,0012.38
2021-12-31 16:15:00,,0811.6,5.01,0.00,21.3,21.9,00.0,30.3,23.0,17.3,0003.4,0026.10,0015.62,0014.24
2021-12-31 16:16:00,,0811.6,4.99,0.00,21.2,21.4,00.0,30.3,22.7,17.4,0003.0,0028.54,0017.70,0016.25
2021-12-31 16:17:00,,0811.7,5.01,0.00,21.1,21.1,00.0,30.3,22.6,17.6,0003.2,0029.85,0019.61,0018.11
2021-12-31 16:18:00,,0811.6,5.01,0.00,21.0,20.7,00.0,30.3,22.5,17.8,0003.6,0031.67,0021.42,0019.77
2021-12-31 16:19:00,,0811.7,5.00,0.00,21.0,20.5,00.0,30.2,22.4,17.9,0003.4,0033.81,0023.23,0021.49
2021-12-31 16:20:00,,0811.6,5.01,0.00,20.9,20.3,00.0,30.2,22.3,18.1,0003.3,0036.40,0024.81,0023.02
2021-12-31 16:21:00,,0811.6,5.01,0.00,20.8,20.2,00.0,30.2,22.2,18.2,0002.9,0038.18,0026.13,0024.24
2021-12-31 16:22:00,,0811.6,5.00,0.00,20.8,20.1,00.0,30.1,22.2,18.4,0003.1,0039.68,0027.35,0025.35
2021-12-31 16:23:00,,0811.7,5.01,0.00,20.8,20.9,00.0,30.1,22.4,18.3,0003.3,0040.44,0028.24,0026.21
2021-12-31 16:24:00,,0811.7,4.99,0.00,21.0,21.9,00.0,30.2,22.9,18.2,0003.0,0042.15,0028.86,0026.83
2021-12-31 16:25:00,,0811.7,5.00,0.00,21.2,22.5,00.0,30.2,23.1,18.0,0002.8,0043.13,0029.24,0027.23
2021-12-31 16:26:00,,0811.6,5.00,0.00,21.2,22.1,00.0,30.2,23.0,18.0,0002.4,0043.43,0029.41,0027.39
2021-12-31 16:27:00,,0811.6,5.01,0.00,21.2,21.6,00.0,30.2,22.8,18.1,0002.9,0043.26,0029.36,0027.38
2021-12-31 16:28:00,,0811.6,4.99,0.00,21.1,21.1,00.0,30.2,22.6,18.2,0003.1,0042.96,0029.57,0027.53
2021-12-31 16:29:00,,0811.6,5.01,0.00,21.0,20.8,00.0,30.2,22.4,18.4,0003.0,0042.91,0029.88,0027.86
2021-12-31 16:30:00,,0811.6,5.00,0.00,20.9,20.5,00.0,30.1,22.2,18.5,0003.3,0042.97,0030.19,0028.11
2021-12-31 16:31:00,,0811.6,4.99,0.00,20.7,20.2,00.0,30.1,22.0,18.7,0003.3,0042.60,0030.53,0028.47
2021-12-31 16:32:00,,0811.6,5.02,0.00,20.7,20.3,00.0,30.1,22.1,18.8,0003.3,0042.77,0031.11,0029.02
2021-12-31 16:33:00,,0811.7,4.99,0.00,20.8,21.2,00.0,30.1,22.5,18.6,0003.2,0043.69,0032.15,0030.08
2021-12-31 16:34:00,,0811.7,5.00,0.00,21.0,22.1,00.0,30.1,22.9,18.4,0003.0,0045.59,0033.69,0031.52
2021-12-31 16:35:00,,0811.6,5.00,0.00,21.2,22.6,00.0,30.2,23.2,18.2,0003.3,0046.29,0035.25,0033.05
2021-12-31 16:36:00,,0811.6,5.01,0.00,21.2,22.2,00.0,30.2,23.0,18.2,0003.3,0047.34,0036.55,0034.30
2021-12-31 16:37:00,,0811.7,5.01,0.00,21.1,21.7,00.0,30.2,22.7,18.3,0003.5,0048.45,0037.69,0035.45
2021-12-31 16:38:00,,0811.7,4.98,0.00,21.0,21.2,00.0,30.2,22.5,18.4,0003.3,0049.56,0038.67,0036.39
2021-12-31 16:39:00,,0811.7,5.01,0.00,20.9,20.8,00.0,30.1,22.3,18.6,0003.1,0050.38,0039.37,0037.10
2021-12-31 16:40:00,,0811.7,5.00,0.00,20.8,20.5,00.0,30.1,22.1,18.8,0003.3,0051.04,0039.91,0037.63
2021-12-31 16:41:00,,0811.7,4.99,0.00,20.7,20.2,00.0,30.1,22.0,18.9,0003.2,0050.77,0039.78,0037.57
2021-12-31 16:42:00,,0811.8,5.00,0.00,20.6,20.1,00.0,30.0,22.0,19.0,0003.2,0050.39,0039.59,0037.41
2021-12-31 16:43:00,,0811.9,5.01,0.00,20.7,21.0,00.0,30.0,22.3,19.0,0003.3,0049.83,0039.02,0036.93
2021-12-31 16:44:00,,0811.9,5.00,0.00,20.9,21.9,00.0,30.1,22.8,18.8,0003.2,0048.76,0037.85,0035.84
2021-12-31 16:45:00,,0811.9,4.98,0.00,21.1,22.6,00.0,30.1,23.1,18.6,0003.3,0047.07,0036.37,0034.45
2021-12-31 16:46:00,,0811.8,5.00,0.00,21.2,22.3,00.0,30.1,23.0,18.6,0003.2,0045.07,0034.72,0032.87
2021-12-31 16:47:00,,0811.8,5.01,0.00,21.1,21.8,00.0,30.2,22.8,18.6,0003.3,0043.40,0033.18,0031.34
2021-12-31 16:48:00,,0811.9,4.98,0.00,21.0,21.3,00.0,30.1,22.5,18.7,0003.3,0042.16,0031.81,0029.97
2021-12-31 16:49:00,,0811.9,5.01,0.00,20.9,20.9,00.0,30.1,22.3,18.9,0003.2,0040.80,0030.55,0028.71
2021-12-31 16:50:00,,0811.9,5.00,0.00,20.8,20.5,00.0,30.1,22.2,19.0,0003.0,0039.37,0029.32,0027.55
2021-12-31 16:51:00,,0812.0,4.99,0.00,20.7,20.2,00.0,30.1,22.0,19.1,0002.6,0038.13,0028.27,0026.56
2021-12-31 16:52:00,,0811.9,5.02,0.00,20.6,20.0,00.0,30.0,21.9,19.3,0002.7,0037.57,0027.76,0026.03
2021-12-31 16:53:00,,0811.9,4.99,0.00,20.6,20.3,00.0,30.0,22.0,19.3,0002.7,0037.23,0027.24,0025.48
2021-12-31 16:54:00,,0811.8,4.99,0.00,20.8,21.3,00.0,30.0,22.5,19.2,0002.6,0037.03,0026.90,0025.09
2021-12-31 16:55:00,,0811.8,5.01,0.00,21.0,22.2,00.0,30.1,22.9,19.0,0002.9,0036.51,0026.58,0024.77
2021-12-31 16:56:00,,0811.8,4.99,0.00,21.2,22.6,00.0,30.1,23.1,18.8,0003.1,0035.89,0026.14,0024.31
2021-12-31 16:57:00,,0811.7,5.00,0.00,21.1,22.0,00.0,30.1,22.9,18.8,0002.9,0035.44,0025.73,0023.90
2021-12-31 16:58:00,,0811.7,5.00,0.00,21.0,21.4,00.0,30.1,22.6,18.9,0002.7,0034.53,0025.15,0023.36
2021-12-31 16:59:00,,0811.7,5.00,0.00,20.9,20.9,00.0,30.1,22.4,19.1,0002.3,0033.32,0024.38,0022.62
